User: anonymous   Login
Location: Unspecified
(0.0000°N, 0.0000°E)
Time: 01:58:28
(UTC+00:00)
Language:

OBJECT H - Orbit

View from above orbital plane
View from above orbital plane
View from above satellite
View from above satellite

Ground track
Ground track

The orbit is defined by the following mean orbital elements,

1 66657U          26145.54249334 +.00000000 +00000-0 +20482-3 0 00004
2 66657  97.7481  75.1595 0013780  89.6442 270.6356 14.93435136    00
Epoch (UTC): 25 May 2026 13:01:11
Eccentricity: 0.0013780
inclination: 97.7481°
perigee height: 578 km
apogee height: 597 km
right ascension of ascending node: 75.1595°
argument of perigee: 89.6442°
revolutions per day: 14.93435136
mean anomaly at epoch: 270.6356°

The dashed part of the orbit path shows where the satellite is in the earth's shadow,  

DLR